Weather History for Arbor Vitae, WI

Change the Weather History Date:

Tuesday, November 19, 2013

  Actual Average Record
Temperature  
Mean Temperature 26 °F -  
Max Temperature 36 °F 35 °F 59 °F (1941)
Min Temperature 16 °F 20 °F 0 °F (1986)
Degree Days  
Heating Degree Days 39    
Moisture  
Dew Point 19 °F    
Average Humidity 69    
Maximum Humidity 90    
Minimum Humidity 50    
Precipitation  
Precipitation 0.00 in - - ()
Sea Level Pressure  
Sea Level Pressure 30.17 in    
Wind  
Wind Speed 6 mph (SSE)    
Max Wind Speed 18 mph    
Max Gust Speed 26 mph    
Visibility 10 miles    
Events      
Averages and records for this station are not official NWS values.
T = Trace of Precipitation, MM = Missing Value Source: NWS Daily Summary

Daily Weather History Graph

Daily Weather History Graph

Search for Another Location

Airport:

Trip Planner

Search our weather history database for the weather conditions in past years. The results will help you decide how hot, cold, wet, or windy it might be!

Date:

Astronomy

Nov. 19, 2013 Rise Set
Actual Time 7:05 AM CST 4:23 PM CST
Civil Twilight 6:32 AM CST 4:56 PM CST
Nautical Twilight 5:55 AM CST 5:32 PM CST
Astronomical Twilight 5:20 AM CST 6:07 PM CST
Moon 6:13 PM CST (11/19) 8:45 AM CST (11/19)
Length of Visible Light 10h 23m
Length of Day
9h 18m
Waning Gibbous, 96% of the Moon is Illuminated
Nov 19
Waning Gibbous
Nov 25
Last Quarter
Dec 2
New
Dec 9
First Quarter
Dec 17
Full

Hourly Weather History & Observations

Time (CST) Temp. Windchill Dew Point Humidity Pressure Visibility Wind Dir Wind Speed Gust Speed Precip Events Conditions
12:15 AM 25.5 °F 18.7 °F 17.2 °F 71% 30.19 in 10.0 mi NW 5.8 mph - N/A   Overcast
12:35 AM 25.5 °F 16.9 °F 17.4 °F 71% 30.19 in 10.0 mi NW 8.1 mph - N/A   Overcast
12:55 AM 24.8 °F 17.9 °F 16.7 °F 71% 30.19 in 10.0 mi NW 5.8 mph - N/A   Overcast
1:15 AM 24.8 °F 16.1 °F 16.9 °F 72% 30.19 in 10.0 mi NNW 8.1 mph - N/A   Overcast
1:35 AM 24.3 °F 16.3 °F 16.7 °F 73% 30.20 in 10.0 mi NNW 6.9 mph - N/A   Mostly Cloudy
1:55 AM 23.5 °F 17.6 °F 16.9 °F 76% 30.20 in 10.0 mi NW 4.6 mph - N/A   Scattered Clouds
2:15 AM 23.0 °F - 16.7 °F 77% 30.20 in 10.0 mi Calm Calm - N/A   Scattered Clouds
2:35 AM 22.1 °F - 16.2 °F 78% 30.20 in 10.0 mi Calm Calm - N/A   Clear
2:55 AM 21.6 °F - 16.5 °F 81% 30.20 in 10.0 mi Calm Calm - N/A   Clear
3:15 AM 20.1 °F - 16.2 °F 85% 30.21 in 10.0 mi Calm Calm - N/A   Clear
3:35 AM 19.2 °F - 16.0 °F 87% 30.22 in 10.0 mi Calm Calm - N/A   Clear
3:55 AM 19.2 °F - 16.3 °F 89% 30.22 in 10.0 mi Calm Calm - N/A   Clear
4:15 AM 17.6 °F - 14.7 °F 88% 30.24 in 10.0 mi Calm Calm - N/A   Clear
4:35 AM 18.9 °F - 16.0 °F 89% 30.24 in 10.0 mi Calm Calm - N/A   Clear
4:55 AM 16.7 °F - 13.8 °F 88% 30.24 in 10.0 mi Calm Calm - N/A   Clear
5:15 AM 16.7 °F - 13.8 °F 88% 30.24 in 10.0 mi Calm Calm - N/A   Clear
5:35 AM 16.7 °F - 14.0 °F 89% 30.23 in 10.0 mi Calm Calm - N/A   Clear
5:55 AM 16.7 °F - 14.0 °F 89% 30.25 in 10.0 mi Calm Calm - N/A   Clear
6:15 AM 16.7 °F - 14.0 °F 89% 30.25 in 10.0 mi Calm Calm - N/A   Clear
6:35 AM 16.7 °F - 13.6 °F 88% 30.25 in 10.0 mi Calm Calm - N/A   Clear
6:55 AM 16.7 °F - 13.8 °F 88% 30.25 in 10.0 mi Calm Calm - N/A   Clear
7:15 AM 16.7 °F - 14.0 °F 89% 30.25 in 10.0 mi Calm Calm - N/A   Clear
7:35 AM 16.7 °F - 13.8 °F 88% 30.25 in 10.0 mi Calm Calm - N/A   Clear
7:55 AM 17.4 °F - 14.7 °F 89% 30.25 in 10.0 mi Calm Calm - N/A   Clear
8:15 AM 19.2 °F - 16.2 °F 88% 30.25 in 10.0 mi Calm Calm - N/A   Clear
8:35 AM 22.1 °F - 19.6 °F 90% 30.25 in 10.0 mi Calm Calm - N/A   Clear
8:55 AM 24.8 °F 20.5 °F 20.5 °F 84% 30.25 in 10.0 mi SE 3.5 mph - N/A   Clear
9:15 AM 26.6 °F 19.1 °F 20.7 °F 78% 30.25 in 10.0 mi SSE 6.9 mph - N/A   Clear
9:35 AM 28.0 °F 19.3 °F 20.7 °F 74% 30.25 in 10.0 mi SSE 9.2 mph - N/A   Clear
9:55 AM 29.3 °F 20.8 °F 21.2 °F 72% 30.25 in 10.0 mi SE 9.2 mph - N/A   Clear
10:15 AM 29.3 °F 20.8 °F 20.5 °F 70% 30.25 in 10.0 mi South 9.2 mph - N/A   Clear
10:35 AM 31.8 °F 23.3 °F 22.1 °F 67% 30.24 in 10.0 mi SE 10.4 mph - N/A   Clear
10:55 AM 31.8 °F 23.3 °F 21.4 °F 65% 30.23 in 10.0 mi SSE 10.4 mph - N/A   Clear
11:15 AM 31.8 °F 24.6 °F 20.7 °F 63% 30.22 in 10.0 mi SE 8.1 mph - N/A   Clear
11:35 AM 32.2 °F 25.8 °F 20.3 °F 62% 30.21 in 10.0 mi South 6.9 mph - N/A   Clear
11:55 AM 32.9 °F 24.7 °F 19.4 °F 58% 30.21 in 10.0 mi South 10.4 mph - N/A   Clear
12:15 PM 34.0 °F 26.6 °F 20.5 °F 58% 30.20 in 10.0 mi SSE 9.2 mph - N/A   Clear
12:35 PM 34.2 °F 26.2 °F 20.3 °F 57% 30.19 in 10.0 mi SSE 10.4 mph - N/A   Clear
12:55 PM 36.5 °F 29.7 °F 21.4 °F 54% 30.19 in 10.0 mi South 9.2 mph - N/A   Clear
1:15 PM 36.5 °F 28.7 °F 20.3 °F 52% 30.19 in 10.0 mi South 11.5 mph 18.4 mph N/A   Clear
1:35 PM 36.5 °F 29.2 °F 19.9 °F 51% 30.17 in 10.0 mi South 10.4 mph - N/A   Clear
1:55 PM 36.5 °F 28.2 °F 19.2 °F 50% 30.16 in 10.0 mi South 12.7 mph 17.3 mph N/A   Clear
2:15 PM 36.5 °F 29.7 °F 19.2 °F 50% 30.15 in 10.0 mi SSE 9.2 mph - N/A   Clear
2:35 PM 36.5 °F 30.3 °F 19.8 °F 51% 30.15 in 10.0 mi SSE 8.1 mph 17.3 mph N/A   Clear
2:55 PM 36.5 °F 28.7 °F 20.3 °F 52% 30.15 in 10.0 mi SSE 11.5 mph - N/A   Clear
3:15 PM 36.5 °F 28.2 °F 20.1 °F 52% 30.14 in 10.0 mi SSE 12.7 mph - N/A   Clear
3:35 PM 36.5 °F 28.7 °F 21.0 °F 54% 30.13 in 10.0 mi SSE 11.5 mph 18.4 mph N/A   Clear
3:55 PM 36.5 °F 30.3 °F 21.7 °F 55% 30.13 in 10.0 mi SSE 8.1 mph - N/A   Clear
4:15 PM 34.0 °F 25.5 °F 20.1 °F 57% 30.13 in 10.0 mi SSE 11.5 mph - N/A   Clear
4:35 PM 34.0 °F 25.5 °F 20.3 °F 57% 30.12 in 10.0 mi SSE 11.5 mph 18.4 mph N/A   Clear
4:55 PM 32.9 °F 24.7 °F 19.6 °F 58% 30.12 in 10.0 mi SSE 10.4 mph 18.4 mph N/A   Clear
5:15 PM 34.0 °F 24.2 °F 20.3 °F 57% 30.12 in 10.0 mi SSE 15.0 mph 20.7 mph N/A   Mostly Cloudy
5:35 PM 34.0 °F 25.5 °F 20.3 °F 57% 30.11 in 10.0 mi SSE 11.5 mph 19.6 mph N/A   Overcast
5:55 PM 34.0 °F 24.6 °F 20.3 °F 57% 30.11 in 10.0 mi SSE 13.8 mph 20.7 mph N/A   Overcast
6:15 PM 34.0 °F 24.2 °F 20.3 °F 57% 30.10 in 10.0 mi SSE 15.0 mph 24.2 mph N/A   Overcast
6:35 PM 34.0 °F 25.0 °F 20.3 °F 57% 30.10 in 10.0 mi SSE 12.7 mph 17.3 mph N/A   Overcast
6:55 PM 34.0 °F 25.0 °F 20.3 °F 57% 30.09 in 10.0 mi SSE 12.7 mph 25.3 mph N/A   Overcast
7:15 PM 34.0 °F 24.6 °F 20.3 °F 57% 30.09 in 10.0 mi SSE 13.8 mph 18.4 mph N/A   Overcast
7:35 PM 34.0 °F 24.2 °F 20.1 °F 57% 30.08 in 10.0 mi SSE 15.0 mph 23.0 mph N/A   Mostly Cloudy
7:55 PM 34.0 °F 24.2 °F 20.3 °F 57% 30.08 in 10.0 mi SSE 15.0 mph 21.9 mph N/A   Overcast
8:15 PM 34.0 °F 24.2 °F 21.2 °F 60% 30.07 in 10.0 mi South 15.0 mph 23.0 mph N/A   Mostly Cloudy
8:35 PM 33.6 °F 24.1 °F 21.7 °F 62% 30.07 in 10.0 mi South 13.8 mph - N/A   Scattered Clouds
8:55 PM 34.0 °F 24.2 °F 22.3 °F 62% 30.06 in 10.0 mi South 15.0 mph 25.3 mph N/A   Clear
9:15 PM 34.0 °F 23.0 °F 22.3 °F 62% 30.06 in 10.0 mi SSE 18.4 mph 21.9 mph N/A   Mostly Cloudy
9:35 PM 34.0 °F 24.2 °F 22.5 °F 63% 30.06 in 10.0 mi SSE 15.0 mph 23.0 mph N/A   Overcast
9:55 PM 34.0 °F 24.2 °F 22.5 °F 63% 30.06 in 10.0 mi South 15.0 mph 24.2 mph N/A   Overcast
10:15 PM 34.0 °F 25.5 °F 22.3 °F 62% 30.06 in 10.0 mi South 11.5 mph 21.9 mph N/A   Overcast
10:35 PM 34.0 °F 23.0 °F 22.3 °F 62% 30.06 in 10.0 mi South 18.4 mph 26.5 mph N/A   Overcast
10:55 PM 34.0 °F 24.2 °F 22.5 °F 63% 30.06 in 10.0 mi South 15.0 mph 24.2 mph N/A   Overcast
11:15 PM 34.0 °F 24.2 °F 22.6 °F 63% 30.06 in 10.0 mi South 15.0 mph 21.9 mph N/A   Overcast
11:35 PM 34.9 °F 26.2 °F 23.4 °F 63% 30.06 in 10.0 mi SSE 12.7 mph 18.4 mph N/A   Overcast
11:55 PM 36.5 °F 28.2 °F 24.8 °F 63% 30.06 in 10.0 mi South 12.7 mph - N/A   Overcast